Location: *
(43.0167°S, 179.9000°E)
Time: 20:39:15
(UTC+00:00)

CZ-2C R/B - Pass Details

Date: 12 August 2024
Orbit: 453 x 499 km, 97.8° (Epoch: 19 September)

Event Time Altitude Azimuth Distance (km) Brightness Sun altitude
Rises 18:01:40 0° 16° (NNE) 2,468 6.5 -10.6°
Reaches altitude 10° 18:03:41 10° 16° (NNE) 1,602 5.6 -10.2°
Maximum altitude 18:07:07 83° 103° (ESE) 473 2.5 -9.6°
Drops below altitude 10° 18:10:37 10° 191° (S) 1,634 5.0 -9.0°
Sets 18:12:42 0° 192° (SSW) 2,524 6.0 -8.6°
